Buoy 21539

sailwx.info

Track history (hours):
 
Tides and Currents Weather Stations Pressure Air Temp Water Temp Dewpoint Dewpoint Depression Visibility Wind Speed Wind Dir Waves Ship Positions

Drifting buoy 21539

Last reported at 2014-Nov-24 01:10 UTC. Time now 2014-Nov-24 06:56 UTC.
Position N 48°34' E 173°28'.

Barometer 1001.6 mb
Water temperature 6.4 ° C

Date/timePositionNaut miles runAvg speedWind from/ knotsBaromVisibWave heightAir tempDewpointWater temp
2014-Nov-24 01:10N 48°34' E 173°28'0 0.0 1001.6 6.4
2014-Nov-23 23:10N 48°34' E 173°28'3 0.8 1003.7 6.4
2014-Nov-23 19:10N 48°31' E 173°27'0 0.0 1008.6 6.4
2014-Nov-23 18:10N 48°31' E 173°27'2 1.0 1010.4 6.4
2014-Nov-23 16:10N 48°29' E 173°28'0 0.1 1014.0 6.4
2014-Nov-23 15:10N 48°29' E 173°28'1 0.1 1015.7 6.4
2014-Nov-23 09:10N 48°29' E 173°28'0 0.0 1019.5 6.4
2014-Nov-23 08:10N 48°29' E 173°28'0 0.0 1019.0 6.4
2014-Nov-23 03:10N 48°29' E 173°28'0 0.0 1017.6 6.4
2014-Nov-22 18:10N 48°29' E 173°28'0 0.0 1014.3 6.4
2014-Nov-22 17:10N 48°29' E 173°28'2 0.8 1013.8 6.4
2014-Nov-22 14:10N 48°27' E 173°26'0 0.0 1011.9 6.4
2014-Nov-22 02:10N 48°27' E 173°26'0 0.0 1004.0 6.4
2014-Nov-22 01:10N 48°27' E 173°26'0 0.2 1003.6 6.4
2014-Nov-22 00:10N 48°27' E 173°26'1 0.2 1003.2 6.4
2014-Nov-21 18:10N 48°28' E 173°24'0 0.0 999.3 6.4
2014-Nov-21 16:10N 48°28' E 173°25'2 0.1 997.9 6.4
2014-Nov-21 02:10N 48°27' E 173°27'2 0.3 993.5 6.4
2014-Nov-20 18:10N 48°28' E 173°24'0 0.1 992.3 6.4
2014-Nov-20 17:10N 48°28' E 173°24'0 0.0 992.1 6.4
2014-Nov-20 14:10N 48°28' E 173°24'1 0.1 991.5 6.4
2014-Nov-20 04:10N 48°28' E 173°26'3 3.1 988.1 6.5
2014-Nov-20 03:10N 48°31' E 173°26'0 0.1 987.4 6.5
2014-Nov-20 01:10N 48°31' E 173°26'3 0.4 986.9 6.5
2014-Nov-19 18:10N 48°29' E 173°23'0 0.0 986.5 6.6
2014-Nov-19 17:10N 48°29' E 173°23'1 0.5 986.2 6.6
2014-Nov-19 15:10N 48°29' E 173°22'0 0.0 986.4 6.6
2014-Nov-19 08:10N 48°29' E 173°22'0 0.0 989.2 6.7
2014-Nov-19 02:10N 48°29' E 173°22'0 0.0 992.6 6.7
2014-Nov-19 01:10N 48°29' E 173°22'0 0.2 993.5 6.7
2014-Nov-19 00:10N 48°29' E 173°21'0 0.2 994.4 6.7
2014-Nov-18 23:10N 48°29' E 173°22'3 0.5 995.5 6.7
2014-Nov-18 17:10N 48°27' E 173°18'0 0.1 998.5 6.7
2014-Nov-18 15:10N 48°28' E 173°18'0 0.0 999.2 6.7
2014-Nov-18 13:10N 48°28' E 173°18'0 0.0 999.1 6.7
2014-Nov-18 04:10N 48°28' E 173°19'0 0.1 996.0 6.8
2014-Nov-18 02:10N 48°27' E 173°19'0 0.3 995.8 6.8
2014-Nov-18 01:10N 48°28' E 173°19'4 0.5 996.0 6.8
2014-Nov-17 18:10N 48°25' E 173°15'0 0.0 996.9 6.8
2014-Nov-17 17:10N 48°25' E 173°15'0 0.1 996.8 6.8
2014-Nov-17 16:10N 48°25' E 173°15'0 0.1 996.8 6.8
2014-Nov-17 15:10N 48°25' E 173°15'4 0.5 997.1 6.8
2014-Nov-17 07:10N 48°21' E 173°16'0 0.0 993.3 6.8
2014-Nov-17 04:10N 48°21' E 173°16'0 0.0 991.2 6.8
2014-Nov-17 02:10N 48°21' E 173°16'0 0.0 990.1 6.8
2014-Nov-16 23:10N 48°21' E 173°16'0 0.1 989.4 6.8
2014-Nov-16 22:10N 48°21' E 173°16'0 0.1 989.3 6.8
2014-Nov-16 21:10N 48°21' E 173°16'0 0.0 989.3 6.8
2014-Nov-16 18:10N 48°21' E 173°16'0 0.0 989.6 6.8
2014-Nov-16 16:10N 48°21' E 173°16'0 0.0 989.7 6.8
2014-Nov-16 15:10N 48°21' E 173°16'0 0.0 990.2 6.8
2014-Nov-16 14:10N 48°21' E 173°16'0 0.0 990.5 6.8
2014-Nov-16 08:10N 48°21' E 173°16'0 0.0 991.7 6.8
2014-Nov-16 06:10N 48°21' E 173°16'0 0.0 992.5 6.8
2014-Nov-16 05:10N 48°21' E 173°16'0 0.1 992.9 6.8
2014-Nov-16 04:10N 48°21' E 173°16'0 0.1 993.1 6.8
2014-Nov-16 03:10N 48°21' E 173°16'0 0.0 994.0 6.8
2014-Nov-16 01:10N 48°21' E 173°16'0 0.0 995.5 6.8
2014-Nov-16 00:10N 48°21' E 173°16'5 0.9 996.4 6.8
2014-Nov-15 19:10N 48°19' E 173°10'0 0.0 999.7 6.8
2014-Nov-15 15:10N 48°19' E 173°10'0 0.0 1002.7 6.8
2014-Nov-15 14:10N 48°19' E 173°10'0 0.0 1002.4 6.8
2014-Nov-15 09:10N 48°19' E 173°10'0 0.1 1002.0 6.8
2014-Nov-15 08:10N 48°19' E 173°10'2 1.7 1001.7 6.8
2014-Nov-15 07:10N 48°19' E 173°08'0 0.0 1001.3 6.8
2014-Nov-15 03:10N 48°19' E 173°08'0 0.0 1001.3 6.8
2014-Nov-15 02:10N 48°19' E 173°08'0 0.0 1001.5 6.8
2014-Nov-15 01:10N 48°19' E 173°08'1 1.0 1002.4 6.8
2014-Nov-15 00:10N 48°18' E 173°07'0 0.1 1003.0 6.8
2014-Nov-14 22:10N 48°18' E 173°07'0 0.1 1003.4 6.8
2014-Nov-14 17:10N 48°18' E 173°07'4 4.0 1001.9 6.8
2014-Nov-14 16:10N 48°16' E 173°01'4 4.2 1001.5 6.8
2014-Nov-14 15:10N 48°18' E 173°07'4 4.2 1001.1 6.8
2014-Nov-14 14:10N 48°16' E 173°01'0 0.0 1000.1 6.8
2014-Nov-14 09:10N 48°16' E 173°01'1 0.2 998.8 6.8
2014-Nov-14 05:10N 48°16' E 173°03'0 0.3 1003.5 6.8
2014-Nov-14 04:10N 48°16' E 173°02'0 0.0 1005.0 6.8
2014-Nov-14 03:10N 48°16' E 173°02'3 3.4 1006.4 6.8
2014-Nov-14 02:10N 48°14' E 172°59'   1008.4 6.8
Track history (hours):
 
Tides and Currents Weather Stations Pressure Air Temp Water Temp Dewpoint Dewpoint Depression Visibility Wind Speed Wind Dir Waves Ship Positions

Drifting buoy 21539

Last reported at 2014-Nov-24 01:10 UTC. Time now 2014-Nov-24 06:56 UTC.
Position N 48°34' E 173°28'.

Barometer 1001.6 mb
Water temperature 6.4 ° C

Date/timePositionNaut miles runAvg speedWind from/ knotsBaromVisibWave heightAir tempDewpointWater temp
2014-Nov-24 01:10N 48°34' E 173°28'0 0.0 1001.6 6.4
2014-Nov-23 23:10N 48°34' E 173°28'3 0.8 1003.7 6.4
2014-Nov-23 19:10N 48°31' E 173°27'0 0.0 1008.6 6.4
2014-Nov-23 18:10N 48°31' E 173°27'2 1.0 1010.4 6.4
2014-Nov-23 16:10N 48°29' E 173°28'0 0.1 1014.0 6.4
2014-Nov-23 15:10N 48°29' E 173°28'1 0.1 1015.7 6.4
2014-Nov-23 09:10N 48°29' E 173°28'0 0.0 1019.5 6.4
2014-Nov-23 08:10N 48°29' E 173°28'0 0.0 1019.0 6.4
2014-Nov-23 03:10N 48°29' E 173°28'0 0.0 1017.6 6.4
2014-Nov-22 18:10N 48°29' E 173°28'0 0.0 1014.3 6.4
2014-Nov-22 17:10N 48°29' E 173°28'2 0.8 1013.8 6.4
2014-Nov-22 14:10N 48°27' E 173°26'0 0.0 1011.9 6.4
2014-Nov-22 02:10N 48°27' E 173°26'0 0.0 1004.0 6.4
2014-Nov-22 01:10N 48°27' E 173°26'0 0.2 1003.6 6.4
2014-Nov-22 00:10N 48°27' E 173°26'1 0.2 1003.2 6.4
2014-Nov-21 18:10N 48°28' E 173°24'0 0.0 999.3 6.4
2014-Nov-21 16:10N 48°28' E 173°25'2 0.1 997.9 6.4
2014-Nov-21 02:10N 48°27' E 173°27'2 0.3 993.5 6.4
2014-Nov-20 18:10N 48°28' E 173°24'0 0.1 992.3 6.4
2014-Nov-20 17:10N 48°28' E 173°24'0 0.0 992.1 6.4
2014-Nov-20 14:10N 48°28' E 173°24'1 0.1 991.5 6.4
2014-Nov-20 04:10N 48°28' E 173°26'3 3.1 988.1 6.5
2014-Nov-20 03:10N 48°31' E 173°26'0 0.1 987.4 6.5
2014-Nov-20 01:10N 48°31' E 173°26'3 0.4 986.9 6.5
2014-Nov-19 18:10N 48°29' E 173°23'0 0.0 986.5 6.6
2014-Nov-19 17:10N 48°29' E 173°23'1 0.5 986.2 6.6
2014-Nov-19 15:10N 48°29' E 173°22'0 0.0 986.4 6.6
2014-Nov-19 08:10N 48°29' E 173°22'0 0.0 989.2 6.7
2014-Nov-19 02:10N 48°29' E 173°22'0 0.0 992.6 6.7
2014-Nov-19 01:10N 48°29' E 173°22'0 0.2 993.5 6.7
2014-Nov-19 00:10N 48°29' E 173°21'0 0.2 994.4 6.7
2014-Nov-18 23:10N 48°29' E 173°22'3 0.5 995.5 6.7
2014-Nov-18 17:10N 48°27' E 173°18'0 0.1 998.5 6.7
2014-Nov-18 15:10N 48°28' E 173°18'0 0.0 999.2 6.7
2014-Nov-18 13:10N 48°28' E 173°18'0 0.0 999.1 6.7
2014-Nov-18 04:10N 48°28' E 173°19'0 0.1 996.0 6.8
2014-Nov-18 02:10N 48°27' E 173°19'0 0.3 995.8 6.8
2014-Nov-18 01:10N 48°28' E 173°19'4 0.5 996.0 6.8
2014-Nov-17 18:10N 48°25' E 173°15'0 0.0 996.9 6.8
2014-Nov-17 17:10N 48°25' E 173°15'0 0.1 996.8 6.8
2014-Nov-17 16:10N 48°25' E 173°15'0 0.1 996.8 6.8
2014-Nov-17 15:10N 48°25' E 173°15'4 0.5 997.1 6.8
2014-Nov-17 07:10N 48°21' E 173°16'0 0.0 993.3 6.8
2014-Nov-17 04:10N 48°21' E 173°16'0 0.0 991.2 6.8
2014-Nov-17 02:10N 48°21' E 173°16'0 0.0 990.1 6.8
2014-Nov-16 23:10N 48°21' E 173°16'0 0.1 989.4 6.8
2014-Nov-16 22:10N 48°21' E 173°16'0 0.1 989.3 6.8
2014-Nov-16 21:10N 48°21' E 173°16'0 0.0 989.3 6.8
2014-Nov-16 18:10N 48°21' E 173°16'0 0.0 989.6 6.8
2014-Nov-16 16:10N 48°21' E 173°16'0 0.0 989.7 6.8
2014-Nov-16 15:10N 48°21' E 173°16'0 0.0 990.2 6.8
2014-Nov-16 14:10N 48°21' E 173°16'0 0.0 990.5 6.8
2014-Nov-16 08:10N 48°21' E 173°16'0 0.0 991.7 6.8
2014-Nov-16 06:10N 48°21' E 173°16'0 0.0 992.5 6.8
2014-Nov-16 05:10N 48°21' E 173°16'0 0.1 992.9 6.8
2014-Nov-16 04:10N 48°21' E 173°16'0 0.1 993.1 6.8
2014-Nov-16 03:10N 48°21' E 173°16'0 0.0 994.0 6.8
2014-Nov-16 01:10N 48°21' E 173°16'0 0.0 995.5 6.8
2014-Nov-16 00:10N 48°21' E 173°16'5 0.9 996.4 6.8
2014-Nov-15 19:10N 48°19' E 173°10'0 0.0 999.7 6.8
2014-Nov-15 15:10N 48°19' E 173°10'0 0.0 1002.7 6.8
2014-Nov-15 14:10N 48°19' E 173°10'0 0.0 1002.4 6.8
2014-Nov-15 09:10N 48°19' E 173°10'0 0.1 1002.0 6.8
2014-Nov-15 08:10N 48°19' E 173°10'2 1.7 1001.7 6.8
2014-Nov-15 07:10N 48°19' E 173°08'0 0.0 1001.3 6.8
2014-Nov-15 03:10N 48°19' E 173°08'0 0.0 1001.3 6.8
2014-Nov-15 02:10N 48°19' E 173°08'0 0.0 1001.5 6.8
2014-Nov-15 01:10N 48°19' E 173°08'1 1.0 1002.4 6.8
2014-Nov-15 00:10N 48°18' E 173°07'0 0.1 1003.0 6.8
2014-Nov-14 22:10N 48°18' E 173°07'0 0.1 1003.4 6.8
2014-Nov-14 17:10N 48°18' E 173°07'4 4.0 1001.9 6.8
2014-Nov-14 16:10N 48°16' E 173°01'4 4.2 1001.5 6.8
2014-Nov-14 15:10N 48°18' E 173°07'4 4.2 1001.1 6.8
2014-Nov-14 14:10N 48°16' E 173°01'0 0.0 1000.1 6.8
2014-Nov-14 09:10N 48°16' E 173°01'1 0.2 998.8 6.8
2014-Nov-14 05:10N 48°16' E 173°03'0 0.3 1003.5 6.8
2014-Nov-14 04:10N 48°16' E 173°02'0 0.0 1005.0 6.8
2014-Nov-14 03:10N 48°16' E 173°02'3 3.4 1006.4 6.8
2014-Nov-14 02:10N 48°14' E 172°59'   1008.4 6.8

Dump ship's entire track history